• Em Portugal
  • Lista de países
  • Para 7 dias
  • Temperatura da água
  • Mapas de satélite
  • Mapa do tempo
  • Widgets de tempo
  • user-avatar
    Iniciar Sessão

    Previsão horária em Sankt Pölten

    Hoje, 27 Maio, Domingo

    Tempo Temperatura Precipitação Vento Pressão Humidade
    00:00 +16°C° 0 mm 1 m/s 740 mmHg 91%
    01:00 +16°C° 0 mm 1 m/s 739 mmHg 92%
    02:00 +16°C° 0 mm 1 m/s 739 mmHg 93%
    03:00 +15°C° 0 mm 1 m/s 739 mmHg 93%
    04:00 +15°C° 0 mm 1 m/s 739 mmHg 93%
    05:00 +18°C° 0 mm 1 m/s 739 mmHg 88%
    06:00 +20°C° 0 mm 1 m/s 739 mmHg 82%
    07:00 +21°C° 0 mm 1 m/s 739 mmHg 76%
    08:00 +23°C° 0 mm 1 m/s 739 mmHg 70%
    09:00 +25°C° 0 mm 2 m/s 739 mmHg 63%
    10:00 +26°C° 0 mm 2 m/s 739 mmHg 57%
    11:00 +27°C° 0 mm 2 m/s 739 mmHg 55%
    12:00 +28°C° 0 mm 3 m/s 739 mmHg 53%
    13:00 +28°C° 0 mm 3 m/s 738 mmHg 51%
    14:00 +28°C° 0,1 mm 3 m/s 738 mmHg 53%
    15:00 +28°C° 0,1 mm 3 m/s 738 mmHg 55%
    16:00 +28°C° 0,1 mm 3 m/s 738 mmHg 57%
    17:00 +26°C° 0 mm 2 m/s 738 mmHg 65%
    18:00 +24°C° 0 mm 2 m/s 738 mmHg 72%
    19:00 +23°C° 0 mm 2 m/s 738 mmHg 80%
    20:00 +22°C° 0,2 mm 1 m/s 738 mmHg 82%
    21:00 +21°C° 0,2 mm 1 m/s 738 mmHg 85%
    22:00 +20°C° 0,2 mm 1 m/s 738 mmHg 88%
    23:00 +20°C° 0,1 mm 1 m/s 738 mmHg 89%

    Amanhã, 28 Maio, Segunda-feira

    Tempo Temperatura Precipitação Vento Pressão Humidade
    00:00 +19°C° 0,1 mm 1 m/s 738 mmHg 90%
    01:00 +19°C° 0,1 mm 1 m/s 738 mmHg 91%
    02:00 +18°C° 0 mm 1 m/s 738 mmHg 91%
    03:00 +18°C° 0 mm 1 m/s 738 mmHg 92%
    04:00 +18°C° 0 mm 1 m/s 738 mmHg 93%
    05:00 +19°C° 0 mm 1 m/s 738 mmHg 89%
    06:00 +21°C° 0 mm 1 m/s 738 mmHg 84%
    07:00 +22°C° 0 mm 1 m/s 739 mmHg 80%
    08:00 +24°C° 0 mm 2 m/s 739 mmHg 73%
    09:00 +26°C° 0 mm 2 m/s 739 mmHg 67%
    10:00 +27°C° 0 mm 3 m/s 738 mmHg 60%
    11:00 +28°C° 0,1 mm 3 m/s 738 mmHg 58%
    12:00 +29°C° 0,1 mm 3 m/s 738 mmHg 56%
    13:00 +30°C° 0,1 mm 3 m/s 738 mmHg 53%
    14:00 +29°C° 0,4 mm 3 m/s 737 mmHg 56%
    15:00 +29°C° 0,4 mm 3 m/s 737 mmHg 58%
    16:00 +28°C° 0,4 mm 3 m/s 737 mmHg 61%
    17:00 +27°C° 0,6 mm 3 m/s 737 mmHg 68%
    18:00 +25°C° 0,6 mm 3 m/s 737 mmHg 74%
    19:00 +24°C° 0,6 mm 2 m/s 736 mmHg 81%
    20:00 +23°C° 0 mm 2 m/s 737 mmHg 84%
    21:00 +21°C° 0 mm 2 m/s 737 mmHg 87%
    22:00 +20°C° 0 mm 2 m/s 737 mmHg 89%
    23:00 +19°C° 0 mm 2 m/s 737 mmHg 90%

    Depois de amanhã, 29 Maio, Terça-feira

    Tempo Temperatura Precipitação Vento Pressão Humidade
    00:00 +19°C° 0 mm 2 m/s 737 mmHg 91%
    01:00 +19°C° 0 mm 2 m/s 737 mmHg 92%
    02:00 +19°C° 0 mm 2 m/s 736 mmHg 93%
    03:00 +18°C° 0 mm 2 m/s 736 mmHg 93%
    04:00 +18°C° 0 mm 2 m/s 736 mmHg 94%
    05:00 +20°C° 0 mm 2 m/s 736 mmHg 90%
    06:00 +21°C° 0 mm 2 m/s 736 mmHg 86%
    07:00 +23°C° 0 mm 2 m/s 736 mmHg 82%
    08:00 +25°C° 0 mm 2 m/s 736 mmHg 74%
    09:00 +27°C° 0 mm 3 m/s 736 mmHg 66%
    10:00 +29°C° 0 mm 3 m/s 736 mmHg 58%
    11:00 +29°C° 0,4 mm 3 m/s 735 mmHg 58%
    12:00 +29°C° 0,4 mm 3 m/s 735 mmHg 58%
    13:00 +30°C° 0,4 mm 3 m/s 735 mmHg 58%
    14:00 +29°C° 0,8 mm 3 m/s 735 mmHg 61%
    15:00 +28°C° 0,8 mm 3 m/s 734 mmHg 63%
    16:00 +28°C° 0,8 mm 3 m/s 734 mmHg 66%
    17:00 +26°C° 0,2 mm 3 m/s 734 mmHg 72%
    18:00 +25°C° 0,2 mm 2 m/s 734 mmHg 77%
    19:00 +24°C° 0,2 mm 2 m/s 734 mmHg 82%
    20:00 +23°C° 0,2 mm 2 m/s 734 mmHg 85%
    21:00 +21°C° 0,2 mm 2 m/s 734 mmHg 87%
    22:00 +21°C° 0,2 mm 1 m/s 734 mmHg 90%
    23:00 +20°C° 0,8 mm 1 m/s 734 mmHg 91%

    30 Maio, Quarta-feira

    Tempo Temperatura Precipitação Vento Pressão Humidade
    00:00 +20°C° 0,8 mm 1 m/s 734 mmHg 92%
    01:00 +20°C° 0,8 mm 1 m/s 733 mmHg 94%
    02:00 +20°C° 0,6 mm 1 m/s 733 mmHg 94%
    03:00 +19°C° 0,6 mm 1 m/s 733 mmHg 95%
    04:00 +19°C° 0,6 mm 1 m/s 733 mmHg 96%
    05:00 +20°C° 0,7 mm 1 m/s 733 mmHg 93%
    06:00 +21°C° 0,7 mm 1 m/s 733 mmHg 90%
    07:00 +22°C° 0,7 mm 1 m/s 733 mmHg 87%
    08:00 +23°C° 1 mm 1 m/s 734 mmHg 86%
    09:00 +23°C° 1 mm 2 m/s 734 mmHg 84%
    10:00 +24°C° 1 mm 2 m/s 734 mmHg 83%
    11:00 +24°C° 0,7 mm 2 m/s 734 mmHg 80%
    12:00 +25°C° 0,7 mm 2 m/s 734 mmHg 76%
    13:00 +26°C° 0,7 mm 2 m/s 733 mmHg 73%
    14:00 +25°C° 0,4 mm 2 m/s 733 mmHg 73%
    15:00 +25°C° 0,4 mm 2 m/s 733 mmHg 74%
    16:00 +25°C° 0,4 mm 2 m/s 733 mmHg 74%
    17:00 +24°C° 0,2 mm 2 m/s 733 mmHg 79%
    18:00 +23°C° 0,2 mm 2 m/s 733 mmHg 84%
    19:00 +21°C° 0,2 mm 2 m/s 733 mmHg 88%
    20:00 +20°C° 0,2 mm 2 m/s 733 mmHg 91%
    21:00 +20°C° 0,2 mm 1 m/s 733 mmHg 93%
    22:00 +19°C° 0,2 mm 1 m/s 733 mmHg 96%
    23:00 +19°C° 0,5 mm 1 m/s 733 mmHg 96%

    31 Maio, Quinta-feira

    Tempo Temperatura Precipitação Vento Pressão Humidade
    00:00 +19°C° 0,5 mm 1 m/s 733 mmHg 96%
    01:00 +18°C° 0,5 mm 1 m/s 732 mmHg 97%
    02:00 +18°C° 0,3 mm 1 m/s 732 mmHg 97%
    03:00 +18°C° 0,3 mm 1 m/s 732 mmHg 97%
    04:00 +18°C° 0,3 mm 1 m/s 733 mmHg 97%
    05:00 +19°C° 0,3 mm 1 m/s 733 mmHg 95%
    06:00 +20°C° 0,3 mm 1 m/s 733 mmHg 93%
    07:00 +20°C° 0,3 mm 1 m/s 733 mmHg 92%
    08:00 +21°C° 0,2 mm 1 m/s 733 mmHg 88%
    09:00 +22°C° 0,2 mm 1 m/s 734 mmHg 84%
    10:00 +23°C° 0,2 mm 1 m/s 734 mmHg 79%
    11:00 +24°C° 0,3 mm 1 m/s 734 mmHg 77%
    12:00 +25°C° 0,3 mm 2 m/s 734 mmHg 74%
    13:00 +25°C° 0,3 mm 2 m/s 733 mmHg 72%
    14:00 +26°C° 0,4 mm 2 m/s 733 mmHg 70%
    15:00 +26°C° 0,4 mm 2 m/s 733 mmHg 67%
    16:00 +27°C° 0,4 mm 2 m/s 733 mmHg 65%
    17:00 +25°C° 0,1 mm 2 m/s 733 mmHg 70%
    18:00 +24°C° 0,1 mm 2 m/s 733 mmHg 76%
    19:00 +23°C° 0,1 mm 1 m/s 733 mmHg 81%
    20:00 +22°C° 0 mm 1 m/s 733 mmHg 84%
    21:00 +21°C° 0 mm 1 m/s 734 mmHg 86%
    22:00 +20°C° 0 mm 1 m/s 734 mmHg 89%
    23:00 +19°C° 0 mm 1 m/s 734 mmHg 90%

    1 Junho, Sexta-feira

    Tempo Temperatura Precipitação Vento Pressão Humidade
    00:00 +19°C° 0 mm 1 m/s 734 mmHg 90%
    01:00 +18°C° 0 mm 1 m/s 734 mmHg 90%
    02:00 +18°C° 0 mm 1 m/s 734 mmHg 91%
    03:00 +18°C° 0 mm 1 m/s 734 mmHg 92%
    04:00 +18°C° 0 mm 1 m/s 735 mmHg 92%
    05:00 +19°C° 0 mm 1 m/s 735 mmHg 87%
    06:00 +21°C° 0 mm 1 m/s 735 mmHg 82%
    07:00 +20°C° 0 mm 0 m/s 736 mmHg 78%
    08:00 +24°C° 0 mm 1 m/s 736 mmHg 71%
    09:00 +26°C° 0 mm 1 m/s 736 mmHg 65%
    10:00 +27°C° 0 mm 1 m/s 736 mmHg 58%
    11:00 +28°C° 0,2 mm 2 m/s 736 mmHg 57%
    12:00 +28°C° 0,2 mm 2 m/s 736 mmHg 56%
    13:00 +28°C° 0,2 mm 2 m/s 736 mmHg 56%
    14:00 +28°C° 0,3 mm 2 m/s 736 mmHg 57%
    15:00 +28°C° 0,3 mm 2 m/s 736 mmHg 58%
    16:00 +28°C° 0,3 mm 2 m/s 736 mmHg 60%
    17:00 +26°C° 0 mm 2 m/s 736 mmHg 66%
    18:00 +25°C° 0 mm 2 m/s 736 mmHg 72%
    19:00 +24°C° 0 mm 1 m/s 736 mmHg 78%
    20:00 +22°C° 0 mm 1 m/s 736 mmHg 81%
    21:00 +21°C° 0 mm 1 m/s 737 mmHg 84%
    22:00 +19°C° 0 mm 1 m/s 737 mmHg 88%
    23:00 +19°C° 0 mm 1 m/s 737 mmHg 88%
    Mostrar mais